RH
49 60 64 84 98 95 95 97 85 90 98 100 100 100 99 94 67 79 86 86 66 58 61 61 62 59 60 62 63 61 56 54
47 66 70 84 100 98 98 96 92 98 99 100 99 89 97 80 76 74 59 62 54 47 50 48 62 65 62 62 65 61 57 55
49 65 76 83 99 98 100 99 99 98 99 100 93 94 94 71 59 68 60 60 51 49 48 51 62 68 69 75 71 68 56 55
47 59 74 84 93 98 95 99 100 97 100 99 97 99 97 89 77 70 69 64 79 57 62 76 52 68 79 84 86 79 68 68
40 53 66 82 84 99 98 99 99 99 97 99 96 97 98 84 77 69 73 65 59 57 74 80 74 71 75 88 90 89 75 69
37 47 58 70 75 96 99 99 99 99 100 95 99 99 90 81 80 73 72 77 63 75 76 84 85 84 80 80 88 84 83 69
34 42 53 62 70 83 99 93 97 98 99 98 99 98 95 90 80 76 81 86 79 83 85 85 81 83 82 80 81 83 78 79
32 40 49 56 67 76 94 99 98 98 98 98 99 99 96 95 88 79 76 88 92 81 80 86 78 70 63 73 73 76 78 72
31 37 46 52 64 73 79 90 97 99 99 100 100 100 97 100 97 86 73 63 65 62 76 82 68 66 62 64 62 81 70 68
28 33 41 50 58 70 75 75 82 95 98 99 98 95 98 98 96 86 84 77 61 58 64 68 66 60 58 64 70 79 77 75
22 29 35 46 54 62 76 71 69 78 94 99 98 95 92 87 86 87 82 80 68 74 59 64 64 60 64 68 67 66 72 75
20 23 29 40 50 58 72 76 66 65 79 93 96 97 96 96 94 86 91 89 85 83 75 71 72 74 76 82 75 72 76 75
20 24 32 38 48 54 64 76 72 65 65 80 86 88 90 94 90 89 90 92 88 85 78 74 78 79 82 83 84 86 85 85
17 21 32 40 46 51 58 72 74 69 67 70 79 82 88 86 83 89 91 90 92 90 89 89 84 87 88 88 88 88 88 86
18 18 20 31 42 48 53 58 71 72 69 70 75 69 56 60 70 79 83 89 91 92 91 91 90 90 90 90 88 87 86 87
26 24 21 21 27 41 48 53 58 70 69 69 71 66 66 81 85 86 85 89 84 85 89 91 90 92 89 89 89 84 84 85
38 38 33 28 26 24 38 47 53 61 70 70 70 76 84 84 85 86 88 88 92 92 87 89 92 92 88 86 88 88 89 86
47 48 47 44 38 31 31 37 50 55 63 69 70 73 79 83 87 88 90 88 92 91 89 90 87 90 90 85 88 91 95 96
50 51 53 52 48 42 37 30 37 47 55 63 67 71 74 79 85 87 88 90 90 90 93 93 92 93 92 92 96 94 96 96
Wind_Speed
14 12 11 12 13 16 15 13 13 12 14 29 37 44 46 41 42 40 40 31 33 28 24 21 22 19 18 17 17 17 16 16
14 14 13 13 14 17 18 17 16 15 21 32 32 33 35 42 38 33 34 29 30 25 24 22 21 20 18 19 18 17 16 16
17 16 16 16 17 18 19 21 21 19 22 34 33 37 42 46 45 34 38 35 34 33 27 23 25 19 19 20 19 17 16 17
19 19 18 17 18 19 23 22 24 24 24 32 30 38 38 44 43 39 43 37 28 33 26 27 29 23 23 24 21 19 17 17
21 22 21 19 19 19 22 24 25 27 27 33 35 39 44 49 49 47 44 38 33 37 31 26 24 28 24 24 22 21 18 18
22 24 23 21 20 21 21 25 27 30 31 32 34 37 39 51 49 47 43 39 39 34 31 29 27 27 27 25 25 25 24 22
20 23 23 22 21 21 22 24 29 29 32 33 36 37 40 47 54 53 47 40 40 40 34 33 34 33 30 31 29 28 27 24
19 24 26 25 25 25 24 26 27 33 35 35 37 41 44 42 49 48 58 45 41 39 38 35 36 37 37 32 30 32 29 27
16 23 27 27 28 28 27 26 27 31 38 37 36 35 41 39 46 50 55 59 54 45 40 41 43 41 40 37 36 33 35 31
14 18 26 28 29 30 29 27 27 28 32 40 40 40 37 39 40 43 49 55 59 54 49 46 45 46 45 42 40 38 33 32
14 16 22 28 29 29 29 29 29 28 29 35 40 42 42 42 43 42 46 50 53 48 54 51 49 48 48 45 45 44 41 39
8 11 16 24 28 30 30 30 30 30 30 31 32 41 41 41 42 48 44 42 47 47 45 48 49 49 47 43 46 47 44 44
6 5 10 18 25 29 31 30 32 32 33 33 34 33 37 43 46 47 48 44 44 43 47 44 45 47 46 46 45 45 45 45
11 4 6 14 21 28 31 31 32 32 33 36 39 41 41 43 45 48 48 49 47 46 44 44 48 46 44 46 46 46 45 45
16 15 9 11 17 24 30 32 31 31 33 36 39 44 45 46 46 47 48 49 48 49 48 48 49 48 47 48 46 46 46 46
20 21 17 16 16 21 26 30 32 34 36 37 43 46 46 41 42 43 46 45 48 46 46 48 48 47 49 47 45 46 47 51
20 21 21 20 20 19 23 27 32 33 36 43 43 39 40 43 43 45 43 44 44 44 44 44 45 46 47 46 45 42 45 42
25 24 23 22 22 19 19 24 26 31 37 41 39 41 41 44 44 40 43 44 41 43 44 44 44 42 42 43 43 43 40 40
26 26 25 24 23 23 23 21 25 30 33 36 37 39 42 40 40 42 42 42 42 41 40 39 38 38 39 39 38 38 38 41
Wind_Direction
206 200 202 200 203 208 201 214 202 197 189 175 168 167 163 163 163 185 182 182 176 173 167 174 170 174 179 184 185 188 191 187
200 198 196 195 192 203 209 206 200 183 185 184 172 175 177 167 174 193 184 179 183 186 187 195 178 187 185 191 189 188 192 192
199 196 194 196 191 198 199 206 203 190 189 185 187 183 176 172 180 186 185 184 184 188 187 202 192 188 195 200 191 192 192 196
203 199 199 196 195 199 205 203 205 196 187 188 187 187 182 183 185 189 182 191 197 191 185 216 206 193 206 210 199 195 195 204
206 202 199 201 196 194 202 206 200 200 197 195 194 194 194 189 191 193 190 205 200 202 205 205 207 202 210 215 210 204 199 212
205 203 201 199 194 196 193 206 204 207 207 203 203 199 199 196 193 193 199 211 213 209 208 215 210 212 211 215 215 215 215 211
207 202 199 198 193 194 192 202 206 205 205 206 206 208 204 200 202 204 200 213 214 209 209 217 218 220 218 221 221 225 220 228
205 198 197 196 196 191 192 193 202 211 210 212 213 212 214 215 208 207 205 209 213 214 211 216 225 228 231 227 233 232 232 236
206 204 202 200 199 195 193 195 197 209 212 214 214 212 214 214 217 214 209 216 219 218 220 222 229 231 232 230 235 237 239 240
211 208 208 206 204 201 197 195 197 203 211 214 215 215 219 214 213 216 221 222 219 221 226 230 234 236 239 232 233 234 237 241
211 222 217 211 209 207 202 200 200 201 204 211 216 220 221 220 219 216 221 220 221 226 231 232 234 237 237 239 241 245 245 246
301 240 232 217 212 209 208 204 203 203 205 207 211 215 218 222 226 221 222 224 225 226 228 233 233 233 237 237 242 246 246 249
353 296 233 218 216 215 215 209 206 208 207 208 212 213 215 219 220 223 225 225 223 227 226 229 232 234 236 237 239 241 245 246
329 312 245 225 221 219 221 220 214 210 209 212 214 214 214 219 222 222 224 226 227 229 228 230 232 234 238 239 240 242 245 250
320 317 279 246 231 225 225 225 222 216 214 214 217 221 224 225 224 225 224 224 229 230 232 233 235 237 238 238 239 243 248 250
334 327 321 315 249 239 232 228 223 220 219 218 222 228 226 224 224 227 228 228 227 229 230 233 236 236 238 236 238 239 241 248
335 328 322 317 312 263 247 239 229 223 222 224 226 224 224 225 225 226 226 228 230 227 229 231 234 236 239 240 239 236 242 248
329 326 320 313 306 311 271 253 239 229 229 230 227 225 226 226 225 223 226 228 227 230 230 230 233 234 239 242 240 238 238 242
325 327 327 318 307 299 291 277 253 239 233 231 228 225 225 225 223 224 224 223 225 227 230 232 233 237 239 242 247 249 248 249